User: anonymous   Login
Location: Albany
(35.0000°S, 118.0000°E)
Time: 02:12:47
(UTC-04:00)
Language:

Cosmos 1933 - Orbit

View from above orbital plane
View from above orbital plane
View from above satellite
View from above satellite

Ground track
Ground track

The orbit data is extracted from the following two-line orbital elements,

1 18958U 88020A   15183.38397451  .00000831  00000-0  60891-4 0  9997
2 18958 082.5304 074.1166 0011512 188.4270 171.6764 15.02239045484021
Epoch (UTC): 02 July 2015 09:12:55
Eccentricity: 0.0011512
inclination: 82.5304°
perigee height: 552 km
apogee height: 568 km
right ascension of ascending node: 74.1166°
argument of perigee: 188.4270°
revolutions per day: 15.02239045
mean anomaly at epoch: 171.6764°
orbit number at epoch: 48402

The dashed part of the orbit path shows where the satellite is in the earth's shadow,  

DLR